[[{"header":{"parameterUnit":"m.s-1","parameterCategory":1,"la1":30.2991,"la2":30.254,"lo1":-89.0895,"lo2":-89.0444,"dy":0.0017,"dx":0.0017,"nx":28,"ny":28,"refTime":"2025-01-30T03:00:00:Z","depth":0,"parameterNumber":2,"parameterNumberName":"U-component_of_WINDS"},"data":[0,0,0,0,0,0,0,0,0,0,0,0,0,0,0,0,0,0,0,0,0,0,0,0,0,0,0,0,0,0,0,0,0,0,0,0,0,0,0,0,0,0,0,0,0,0,0,0,0,0,0,0,0,0,0,0,0,0,-0.7828,-0.7828,0,-0.7807,-0.7807,-0.7806,-0.7804,-0.7804,-0.7804,-0.7804,-0.7782,-0.7781,-0.778,0,0,0,0,0,0,0,0,0,0,0,0,0,-0.7865,-0.7864,-0.7828,-0.7828,-0.7827,-0.7807,-0.7807,-0.7806,-0.7804,-0.7804,-0.7804,-0.7805,-0.7782,-0.7781,-0.778,0,0,0,0,0,0,0,0,0,0,0,0,0,-0.7847,-0.7864,-0.7828,-0.7824,-0.7823,-0.7807,-0.7807,-0.7806,-0.7804,-0.7804,-0.7804,-0.7805,-0.7782,-0.7781,-0.778,-0.7766,0,0,-0.7776,-0.7776,0,0,0,0,0,0,0,0,-0.7848,-0.7845,-0.7825,-0.7824,-0.7823,-0.7808,-0.7811,-0.7793,-0.7804,-0.7811,-0.7804,-0.7805,-0.779,-0.7788,-0.7784,-0.7765,-0.7764,-0.7776,-0.7775,-0.7775,-0.7774,0,0,0,0,0,0,0,-0.7849,-0.7846,-0.782,-0.7824,-0.7824,-0.7822,-0.782,-0.7808,-0.7799,-0.781,-0.781,-0.7808,-0.779,-0.7785,-0.7783,-0.7764,-0.7776,-0.7775,-0.7774,-0.7774,-0.7732,-0.7731,0,0,0,0,0,0,-0.7851,-0.7847,-0.782,-0.7819,-0.7837,-0.7821,-0.7819,-0.7813,-0.7799,-0.7797,-0.7808,-0.7808,-0.7787,-0.7784,-0.7782,-0.7765,-0.7775,-0.7774,-0.7773,-0.7732,-0.7732,-0.7731,0,0,0,0,0,0,-0.7852,-0.7849,-0.7821,-0.7833,-0.7829,-0.7821,-0.7814,-0.7812,-0.7807,-0.7797,-0.7795,-0.7804,-0.7787,-0.7784,-0.777,-0.7764,-0.7773,-0.7772,-0.7732,-0.7732,-0.7731,-0.7729,0,0,0,0,0,0,-0.7853,-0.7849,-0.7844,-0.7833,-0.7829,-0.781,-0.7813,-0.7812,-0.7805,-0.7805,-0.7793,-0.7792,-0.7787,-0.7772,-0.7769,-0.7762,-0.7771,-0.7733,-0.7732,-0.7732,-0.773,-0.7729,-0.7728,0,0,0,0,0,-0.7854,-0.7844,-0.7844,-0.7841,-0.7822,-0.7809,-0.7807,-0.7802,-0.7805,-0.7799,-0.7793,-0.7792,-0.7765,-0.777,-0.7767,-0.776,-0.7733,-0.7732,-0.7732,-0.7731,-0.7729,-0.7728,0,0,0,0,0,0,-0.7855,-0.7843,-0.7842,-0.7828,-0.782,-0.7809,-0.7802,-0.7801,-0.7791,-0.7791,-0.7785,-0.7783,-0.7769,-0.7763,-0.7769,-0.7745,-0.7749,-0.7748,-0.775,-0.7748,-0.7747,-0.7749,-0.777,0,0,0,0,0,-0.7853,-0.7844,-0.7834,-0.7823,-0.7818,-0.7811,-0.7805,-0.7802,-0.7793,-0.7789,-0.7782,-0.7772,-0.7762,-0.7755,-0.7745,-0.7729,-0.7726,-0.7723,-0.7722,-0.7721,-0.7719,-0.771,-0.7708,-0.7728,-0.7728,-0.7728,0,0,-0.785,-0.7842,-0.7837,-0.7822,-0.7816,-0.7805,-0.7808,-0.7797,-0.779,-0.7787,-0.7774,-0.7768,-0.7757,-0.7742,-0.7735,-0.7737,-0.7713,-0.772,-0.7719,-0.7718,-0.7709,-0.7707,-0.7706,-0.7728,-0.7728,-0.7728,0,0,-0.7839,-0.7832,-0.7822,-0.7815,-0.7805,-0.78,-0.7797,-0.7786,-0.7782,-0.7769,-0.7766,-0.7757,-0.7739,-0.7731,-0.7725,-0.771,-0.7709,-0.7707,-0.7701,-0.7693,-0.7691,-0.769,-0.7684,-0.7682,-0.7706,-0.7706,-0.7706,0,-0.7836,-0.7821,-0.7817,-0.7806,-0.7799,-0.7797,-0.7786,-0.778,-0.7766,-0.7762,-0.7764,-0.7741,-0.7733,-0.7716,-0.7713,-0.7708,-0.7704,-0.7708,-0.7692,-0.769,-0.7689,-0.7683,-0.7681,-0.7706,-0.7706,-0.7706,-0.7706,0,-0.7818,-0.7808,-0.78,-0.7788,-0.778,-0.777,-0.7763,-0.7756,-0.7754,-0.7748,-0.7734,-0.7725,-0.7712,-0.7708,-0.7706,-0.7691,-0.7692,-0.7693,-0.7697,-0.7687,-0.7681,-0.7679,-0.7705,-0.7705,-0.7706,-0.7706,0,0,-0.7806,-0.7791,-0.7788,-0.7782,-0.777,-0.7762,-0.7751,-0.7739,-0.7733,-0.7724,-0.7714,-0.7699,-0.7699,-0.7692,-0.7689,-0.7681,-0.7669,-0.7683,-0.7682,-0.768,-0.7651,-0.765,-0.7648,-0.7668,-0.7668,-0.7668,-0.7652,0,-0.7793,-0.7774,-0.7769,-0.7752,-0.7742,-0.774,-0.773,-0.7721,-0.7716,-0.7706,-0.77,-0.7689,-0.7691,-0.7687,-0.7679,-0.7672,-0.7663,-0.7673,-0.7658,-0.7658,-0.766,-0.7645,-0.7644,-0.7629,-0.765,-0.7649,-0.7649,0,-0.7776,-0.7766,-0.7748,-0.7737,-0.7732,-0.7724,-0.7712,-0.7703,-0.7693,-0.769,-0.7682,-0.7679,-0.7666,-0.7671,-0.7654,-0.7661,-0.7654,-0.765,-0.7649,-0.7647,-0.7652,-0.7641,-0.7624,-0.7622,-0.7646,-0.7646,-0.7646,0,-0.7768,-0.7751,-0.7738,-0.7732,-0.7719,-0.7713,-0.7707,-0.7698,-0.7691,-0.768,-0.7676,-0.7664,-0.7657,-0.7648,-0.7642,-0.7646,-0.7625,-0.7629,-0.7621,-0.7621,-0.7616,-0.7616,-0.7597,-0.7613,-0.7613,-0.7613,-0.7613,0,-0.7754,-0.7743,-0.7734,-0.7726,-0.7713,-0.7708,-0.7695,-0.7689,-0.768,-0.767,-0.7668,-0.7658,-0.7651,-0.7641,-0.7636,-0.7622,-0.7619,-0.7616,-0.7614,-0.7615,-0.7616,-0.7611,-0.7611,-0.7613,-0.7613,-0.7613,-0.7613,0,-0.7743,-0.7737,-0.7722,-0.7711,-0.7708,-0.7699,-0.7689,-0.768,-0.7675,-0.7663,-0.7659,-0.7651,-0.7638,-0.7631,-0.7616,-0.7612,-0.7596,-0.7596,-0.76,-0.7599,-0.7591,-0.7591,-0.7567,-0.7563,-0.7583,-0.7582,-0.7582,0,-0.7734,-0.7725,-0.7713,-0.7706,-0.7701,-0.769,-0.7683,-0.7677,-0.7669,-0.7657,-0.765,-0.7637,-0.7627,-0.7607,-0.7599,-0.7587,-0.7586,-0.7578,-0.7584,-0.7585,-0.7585,-0.7585,-0.7584,-0.7577,-0.7576,-0.7576,-0.7576,0,-0.7719,-0.7716,-0.7706,-0.7694,-0.7685,-0.7676,-0.7667,-0.7661,-0.7654,-0.7646,-0.7633,-0.7625,-0.7609,-0.7596,-0.7583,-0.7577,-0.7575,-0.7575,-0.7572,-0.7572,-0.7575,-0.7573,-0.7596,-0.7575,-0.7575,-0.7575,-0.7575,-0.7575,-0.7708,-0.77,-0.769,-0.7678,-0.7671,-0.7662,-0.7653,-0.7647,-0.7636,-0.7623,-0.762,-0.7606,-0.7596,-0.7578,-0.7571,-0.756,-0.7562,-0.7558,-0.7557,-0.7556,-0.7555,-0.7577,-0.7558,-0.7558,-0.7558,-0.7558,-0.7558,0,-0.7692,-0.7685,-0.7674,-0.7661,-0.7652,-0.7652,-0.7641,-0.7633,-0.7621,-0.7612,-0.7602,-0.7587,-0.7574,-0.7565,-0.7552,-0.7545,-0.7544,-0.7542,-0.7542,-0.754,-0.7555,-0.7558,-0.7543,-0.7543,-0.7543,-0.7543,-0.7543,-0.7543,-0.7682,-0.7668,-0.7664,-0.7646,-0.7639,-0.7626,-0.762,-0.7611,-0.7604,-0.7587,-0.7577,-0.7571,-0.7561,-0.7548,-0.7536,-0.7534,-0.7529,-0.7527,-0.7524,-0.7538,-0.7539,-0.7541,-0.7544,-0.7526,-0.7526,-0.751,-0.751,-0.751]},{"header":{"parameterUnit":"m.s-1","parameterCategory":1,"la1":30.2991,"la2":30.254,"lo1":-89.0895,"lo2":-89.0444,"dy":0.0017,"dx":0.0017,"nx":28,"ny":28,"refTime":"2025-01-30T03:00:00:Z","depth":0,"parameterNumber":3,"parameterNumberName":"V-component_of_WINDS"},"data":[0,0,0,0,0,0,0,0,0,0,0,0,0,0,0,0,0,0,0,0,0,0,0,0,0,0,0,0,0,0,0,0,0,0,0,0,0,0,0,0,0,0,0,0,0,0,0,0,0,0,0,0,0,0,0,0,0,0,5.9866,5.9867,0,5.9938,5.9938,5.9939,5.991,5.9909,5.9907,5.9906,5.9974,5.9977,5.9981,0,0,0,0,0,0,0,0,0,0,0,0,0,5.9702,5.9705,5.9866,5.9867,5.9868,5.9937,5.9938,5.9939,5.9911,5.9909,5.9907,5.9905,5.9973,5.9977,5.9981,0,0,0,0,0,0,0,0,0,0,0,0,0,5.9773,5.9706,5.9866,5.9862,5.9863,5.9937,5.9938,5.994,5.9911,5.9909,5.9906,5.9904,5.9972,5.9976,5.9981,6.0063,0,0,5.9997,5.9999,0,0,0,0,0,0,0,0,5.9769,5.9779,5.9862,5.9863,5.9863,5.9913,5.9906,5.9981,5.9912,5.9893,5.9905,5.9903,5.9955,5.9962,5.998,6.0066,6.0069,5.9997,6.0,6.0003,6.0004,0,0,0,0,0,0,0,5.9765,5.9776,5.9894,5.9863,5.9864,5.9856,5.9863,5.992,5.9937,5.9894,5.9892,5.9901,5.9955,5.9975,5.9982,6.007,5.9997,6.0002,6.0005,6.0007,6.0229,6.0232,0,0,0,0,0,0,5.976,5.9772,5.9892,5.9896,5.9809,5.9861,5.9869,5.9899,5.9936,5.994,5.9903,5.99,5.9968,5.9976,5.9984,6.0085,6.0003,6.0007,6.001,6.0226,6.023,6.0233,0,0,0,0,0,0,5.9757,5.9771,5.9889,5.9834,5.9848,5.9866,5.99,5.9902,5.9922,5.9943,5.9946,5.9921,5.9966,5.9977,6.0044,6.0086,6.001,6.0014,6.0223,6.0227,6.0231,6.0285,0,0,0,0,0,0,5.9752,5.977,5.9801,5.9835,5.9852,5.995,5.9903,5.9905,5.9932,5.9928,5.9961,5.9964,5.9965,6.0037,6.005,6.0092,6.0018,6.0219,6.0225,6.023,6.0279,6.029,6.03,0,0,0,0,0,5.9746,5.9812,5.9803,5.9818,5.9892,5.9952,5.9961,5.9963,5.9935,5.9967,5.9981,5.9963,6.0079,6.0044,6.0058,6.0103,6.0217,6.0223,6.023,6.0275,6.0288,6.0299,0,0,0,0,0,0,5.978,5.9816,5.9807,5.9885,5.9916,5.9947,5.9987,5.9976,6.0014,6.0009,6.0007,6.0015,6.0086,6.01,6.0061,6.0185,6.0144,6.0153,6.0173,6.0186,6.0196,6.0192,6.0022,0,0,0,0,0,5.9798,5.9845,5.9873,5.9939,5.9955,5.9969,5.9995,5.9994,6.0025,6.0037,6.0056,6.0086,6.0129,6.0158,6.0199,6.028,6.0288,6.0318,6.0328,6.0336,6.0345,6.0393,6.0407,6.0254,6.0254,6.0254,0,0,5.9832,5.9858,5.9887,5.9947,5.9971,6.002,5.998,6.0032,6.0069,6.0045,6.0112,6.0126,6.0159,6.0235,6.0269,6.0249,6.0389,6.0345,6.0351,6.0356,6.0401,6.0415,6.0428,6.0258,6.0258,6.0257,0,0,5.9922,5.9945,6.0005,6.0031,6.0068,6.0077,6.0091,6.0124,6.0134,6.0201,6.0185,6.0227,6.0302,6.0327,6.035,6.0452,6.0438,6.0465,6.0519,6.0565,6.0577,6.0588,6.0627,6.0641,6.0473,6.0473,6.0473,0,5.9961,6.0035,6.0037,6.0092,6.012,6.0102,6.0164,6.0187,6.0235,6.0254,6.0231,6.0327,6.0347,6.0431,6.0456,6.0474,6.0491,6.0462,6.0575,6.0586,6.0596,6.0634,6.0648,6.0477,6.0476,6.0476,6.0476,0,6.0082,6.0134,6.0178,6.0228,6.026,6.0318,6.0328,6.036,6.0356,6.0367,6.0437,6.0461,6.0509,6.0528,6.0523,6.0611,6.0598,6.0575,6.0534,6.0614,6.065,6.0664,6.0481,6.048,6.0479,6.0478,0,0,6.0196,6.0248,6.0265,6.0289,6.033,6.0369,6.0426,6.0475,6.0504,6.0537,6.0586,6.065,6.0631,6.0656,6.0654,6.0695,6.0778,6.0667,6.0668,6.069,6.088,6.0899,6.0916,6.0768,6.077,6.0773,6.0878,0,6.0291,6.0394,6.0398,6.0492,6.0541,6.0526,6.0576,6.0607,6.0619,6.0661,6.0674,6.0721,6.069,6.0706,6.0745,6.076,6.0817,6.0752,6.0814,6.0817,6.081,6.0934,6.0953,6.1052,6.0892,6.0894,6.0896,0,6.0416,6.0458,6.0558,6.0595,6.0615,6.066,6.0707,6.0747,6.0782,6.0788,6.0818,6.0811,6.087,6.0826,6.0907,6.0863,6.0889,6.09,6.0904,6.0912,6.0863,6.0948,6.1083,6.1099,6.0917,6.0915,6.0913,0,6.0494,6.0573,6.0645,6.0665,6.0709,6.0742,6.0761,6.0793,6.0823,6.0862,6.0882,6.0927,6.0952,6.0987,6.0992,6.0959,6.1075,6.1031,6.1083,6.1083,6.111,6.1109,6.1255,6.1122,6.1121,6.1121,6.1121,0,6.0602,6.0664,6.0681,6.0724,6.0794,6.0797,6.0866,6.0882,6.0912,6.0958,6.0946,6.099,6.0993,6.1038,6.1042,6.1111,6.1121,6.1129,6.113,6.1132,6.1131,6.115,6.1145,6.1125,6.1124,6.1123,6.1123,0,6.07,6.0714,6.0791,6.0827,6.0838,6.0888,6.0918,6.096,6.0972,6.1031,6.1045,6.1063,6.1116,6.1124,6.1185,6.1188,6.1271,6.1263,6.1261,6.1261,6.1314,6.131,6.1479,6.1503,6.1352,6.1353,6.1354,0,6.077,6.0818,6.0861,6.0893,6.0915,6.0965,6.0997,6.1001,6.1035,6.1079,6.1116,6.1168,6.121,6.1295,6.1312,6.136,6.1355,6.1411,6.1361,6.1363,6.1359,6.1358,6.1364,6.1421,6.1422,6.1424,6.1425,0,6.0893,6.0898,6.0945,6.0995,6.1034,6.1073,6.1109,6.1135,6.1145,6.1183,6.1238,6.1271,6.1335,6.1388,6.1435,6.1454,6.1442,6.144,6.1455,6.1459,6.1458,6.1463,6.129,6.1437,6.1435,6.1435,6.1434,6.1433,6.0981,6.1025,6.1063,6.1116,6.1145,6.1181,6.1223,6.1241,6.1288,6.1343,6.1342,6.1403,6.1437,6.15,6.1523,6.157,6.1552,6.1573,6.1579,6.1585,6.1592,6.1448,6.1578,6.1578,6.1578,6.1577,6.1577,0,6.1107,6.1131,6.118,6.1234,6.1277,6.1263,6.1303,6.1339,6.1394,6.1428,6.1471,6.1536,6.1587,6.161,6.166,6.1694,6.169,6.1707,6.1706,6.1712,6.1604,6.1587,6.171,6.171,6.171,6.171,6.171,6.171,6.1178,6.1252,6.1262,6.1351,6.1374,6.1436,6.1461,6.1493,6.1521,6.1595,6.1639,6.1653,6.1683,6.1736,6.1783,6.1788,6.1809,6.1829,6.1832,6.1732,6.1719,6.1706,6.1691,6.1833,6.1833,6.1937,6.1937,6.1938]}]]